When you browse on this site, cookies collect data to enhance your experience and personalize the content and advertising you see.
Visit our Privacy Policy to learn more. By continuing to use the site, you agree to this use of cookies and data.
  • In Czech Republic
  • List of Countries
  • For 7 days
  • Water Temperature
  • Satellite Maps
  • Weather Map
  • Weather Widgets
  • user-avatar
    Login

    Hourly Weather Alcazar de San Juan

    Today, 10 December, Monday

    Time Temperature Precipitation Wind Pressure Humidity
    00:00 +10°C° 0 mm 3 mps 715 mmHg 58%
    01:00 +9°C° 0 mm 3 mps 714 mmHg 58%
    02:00 +8°C° 0 mm 2 mps 714 mmHg 58%
    03:00 +8°C° 0 mm 2 mps 714 mmHg 59%
    04:00 +8°C° 0 mm 2 mps 714 mmHg 58%
    05:00 +7°C° 0 mm 2 mps 714 mmHg 58%
    06:00 +7°C° 0 mm 2 mps 714 mmHg 52%
    07:00 +9°C° 0 mm 1 mps 714 mmHg 50%
    08:00 +10°C° 0 mm 1 mps 714 mmHg 48%
    09:00 +11°C° 0 mm 1 mps 714 mmHg 46%
    10:00 +13°C° 0 mm 1 mps 714 mmHg 40%
    11:00 +14°C° 0 mm 2 mps 714 mmHg 34%
    12:00 +16°C° 0 mm 2 mps 714 mmHg 29%
    13:00 +17°C° 0 mm 2 mps 713 mmHg 28%
    14:00 +17°C° 0 mm 2 mps 713 mmHg 27%
    15:00 +17°C° 0 mm 2 mps 712 mmHg 27%
    16:00 +16°C° 0 mm 2 mps 712 mmHg 31%
    17:00 +14°C° 0 mm 1 mps 711 mmHg 35%
    18:00 +12°C° 0 mm 1 mps 711 mmHg 39%
    19:00 +12°C° 0 mm 1 mps 711 mmHg 40%
    20:00 +11°C° 0 mm 1 mps 711 mmHg 41%
    21:00 +11°C° 0 mm 1 mps 711 mmHg 42%
    22:00 +10°C° 0 mm 1 mps 711 mmHg 42%
    23:00 +10°C° 0 mm 1 mps 711 mmHg 43%

    Tomorrow, 11 December, Tuesday

    Time Temperature Precipitation Wind Pressure Humidity
    00:00 +9°C° 0 mm 1 mps 710 mmHg 43%
    01:00 +9°C° 0 mm 1 mps 710 mmHg 43%
    02:00 +8°C° 0 mm 0 mps 709 mmHg 43%
    03:00 +8°C° 0 mm 0 mps 709 mmHg 43%
    04:00 +7°C° 0 mm 0 mps 709 mmHg 44%
    05:00 +8°C° 0 mm 1 mps 709 mmHg 44%
    06:00 +8°C° 0 mm 1 mps 709 mmHg 44%
    07:00 +9°C° 0 mm 1 mps 709 mmHg 43%
    08:00 +10°C° 0 mm 1 mps 709 mmHg 42%
    09:00 +11°C° 0 mm 1 mps 710 mmHg 41%
    10:00 +13°C° 0 mm 2 mps 709 mmHg 38%
    11:00 +15°C° 0 mm 2 mps 709 mmHg 35%
    12:00 +16°C° 0 mm 3 mps 709 mmHg 32%
    13:00 +16°C° 0 mm 3 mps 709 mmHg 34%
    14:00 +17°C° 0 mm 4 mps 709 mmHg 36%
    15:00 +17°C° 0 mm 4 mps 709 mmHg 38%
    16:00 +14°C° 0 mm 3 mps 708 mmHg 44%
    17:00 +13°C° 0 mm 3 mps 708 mmHg 49%
    18:00 +13°C° 0 mm 2 mps 708 mmHg 54%
    19:00 +12°C° 0 mm 2 mps 709 mmHg 57%
    20:00 +11°C° 0 mm 3 mps 709 mmHg 59%
    21:00 +10°C° 0 mm 3 mps 709 mmHg 62%
    22:00 +10°C° 0 mm 3 mps 709 mmHg 65%
    23:00 +9°C° 0 mm 2 mps 709 mmHg 69%

    Day after tomorrow, 12 December, Wednesday

    Time Temperature Precipitation Wind Pressure Humidity
    00:00 +9°C° 0 mm 2 mps 709 mmHg 72%
    01:00 +8°C° 0 mm 2 mps 709 mmHg 75%
    02:00 +8°C° 0 mm 2 mps 709 mmHg 78%
    03:00 +7°C° 0 mm 2 mps 709 mmHg 81%
    04:00 +7°C° 0 mm 2 mps 709 mmHg 82%
    05:00 +7°C° 0 mm 2 mps 709 mmHg 84%
    06:00 +7°C° 0 mm 2 mps 708 mmHg 85%
    07:00 +7°C° 0 mm 2 mps 709 mmHg 84%
    08:00 +8°C° 0 mm 3 mps 709 mmHg 82%
    09:00 +8°C° 0 mm 3 mps 709 mmHg 81%
    10:00 +10°C° 0 mm 3 mps 709 mmHg 75%
    11:00 +11°C° 0 mm 3 mps 708 mmHg 70%
    12:00 +12°C° 0 mm 4 mps 708 mmHg 64%
    13:00 +13°C° 0 mm 4 mps 707 mmHg 63%
    14:00 +13°C° 0 mm 5 mps 707 mmHg 61%
    15:00 +13°C° 0 mm 5 mps 706 mmHg 60%
    16:00 +12°C° 0 mm 5 mps 706 mmHg 67%
    17:00 +11°C° 0 mm 4 mps 706 mmHg 74%
    18:00 +10°C° 0 mm 4 mps 706 mmHg 81%
    19:00 +8°C° 0 mm 4 mps 706 mmHg 83%
    20:00 +8°C° 0 mm 4 mps 706 mmHg 85%
    21:00 +8°C° 0 mm 4 mps 706 mmHg 87%
    22:00 +8°C° 0 mm 5 mps 706 mmHg 86%
    23:00 +8°C° 0 mm 5 mps 706 mmHg 86%

    13 December, Thursday

    Time Temperature Precipitation Wind Pressure Humidity
    00:00 +8°C° 0 mm 6 mps 705 mmHg 85%
    01:00 +8°C° 0.1 mm 6 mps 705 mmHg 85%
    02:00 +8°C° 0.1 mm 7 mps 704 mmHg 86%
    03:00 +8°C° 0.1 mm 7 mps 704 mmHg 86%
    04:00 +8°C° 0.9 mm 7 mps 703 mmHg 86%
    05:00 +7°C° 0.9 mm 8 mps 703 mmHg 86%
    06:00 +6°C° 0.9 mm 8 mps 702 mmHg 86%
    07:00 +6°C° 0.2 mm 9 mps 701 mmHg 86%
    08:00 +6°C° 0.2 mm 9 mps 701 mmHg 85%
    09:00 +7°C° 0.2 mm 9 mps 700 mmHg 84%
    10:00 +7°C° 0.3 mm 10 mps 700 mmHg 78%
    11:00 +8°C° 0.3 mm 12 mps 700 mmHg 71%
    12:00 +9°C° 0.3 mm 13 mps 699 mmHg 65%
    13:00 +8°C° 0.7 mm 13 mps 700 mmHg 61%
    14:00 +7°C° 0.7 mm 13 mps 700 mmHg 57%
    15:00 +5°C° 0.7 mm 12 mps 700 mmHg 53%
    16:00 +6°C° 0.1 mm 11 mps 701 mmHg 54%
    17:00 +5°C° 0.1 mm 10 mps 702 mmHg 55%
    18:00 +3°C° 0.1 mm 9 mps 703 mmHg 57%
    19:00 +3°C° 0 mm 9 mps 704 mmHg 58%
    20:00 +4°C° 0 mm 8 mps 704 mmHg 59%
    21:00 +2°C° 0 mm 8 mps 705 mmHg 61%
    22:00 +2°C° 0 mm 8 mps 706 mmHg 62%
    23:00 +2°C° 0 mm 7 mps 706 mmHg 64%

    14 December, Friday

    Time Temperature Precipitation Wind Pressure Humidity
    00:00 +2°C° 0 mm 7 mps 707 mmHg 65%
    01:00 +2°C° 0 mm 7 mps 707 mmHg 68%
    02:00 0°C° 0 mm 7 mps 708 mmHg 71%
    03:00 0°C° 0 mm 7 mps 708 mmHg 74%
    04:00 +1°C° 0 mm 6 mps 708 mmHg 75%
    05:00 0°C° 0 mm 5 mps 709 mmHg 76%
    06:00 0°C° 0 mm 5 mps 709 mmHg 78%
    07:00 +1°C° 0 mm 5 mps 710 mmHg 75%
    08:00 +1°C° 0 mm 5 mps 710 mmHg 73%
    09:00 +2°C° 0 mm 5 mps 711 mmHg 70%
    10:00 +3°C° 0 mm 5 mps 711 mmHg 65%
    11:00 +6°C° 0 mm 5 mps 712 mmHg 59%
    12:00 +7°C° 0 mm 5 mps 712 mmHg 53%
    13:00 +7°C° 0 mm 5 mps 712 mmHg 50%
    14:00 +8°C° 0 mm 5 mps 712 mmHg 48%
    15:00 +8°C° 0 mm 5 mps 712 mmHg 46%
    16:00 +7°C° 0 mm 4 mps 712 mmHg 50%
    17:00 +7°C° 0 mm 3 mps 713 mmHg 54%
    18:00 +6°C° 0 mm 2 mps 713 mmHg 58%
    19:00 +6°C° 0 mm 2 mps 713 mmHg 60%
    20:00 +6°C° 0 mm 2 mps 714 mmHg 62%
    21:00 +5°C° 0 mm 2 mps 714 mmHg 63%
    22:00 +5°C° 0 mm 2 mps 714 mmHg 65%
    23:00 +5°C° 0 mm 2 mps 714 mmHg 67%

    15 December, Saturday

    Time Temperature Precipitation Wind Pressure Humidity
    00:00 +5°C° 0 mm 2 mps 714 mmHg 69%
    01:00 +5°C° 0 mm 2 mps 714 mmHg 70%
    02:00 +4°C° 0 mm 2 mps 714 mmHg 71%
    03:00 +4°C° 0 mm 2 mps 714 mmHg 72%
    04:00 +5°C° 0 mm 1 mps 714 mmHg 73%
    05:00 +5°C° 0 mm 1 mps 713 mmHg 75%
    06:00 +5°C° 0 mm 1 mps 713 mmHg 76%
    07:00 +6°C° 0 mm 1 mps 714 mmHg 72%
    08:00 +7°C° 0 mm 1 mps 714 mmHg 68%
    09:00 +8°C° 0 mm 1 mps 715 mmHg 65%
    10:00 +9°C° 0 mm 1 mps 714 mmHg 60%
    11:00 +11°C° 0 mm 1 mps 714 mmHg 56%
    12:00 +12°C° 0 mm 1 mps 714 mmHg 52%
    13:00 +13°C° 0 mm 1 mps 713 mmHg 51%
    14:00 +13°C° 0 mm 1 mps 713 mmHg 51%
    15:00 +14°C° 0 mm 1 mps 713 mmHg 50%
    16:00 +13°C° 0 mm 1 mps 713 mmHg 56%
    17:00 +11°C° 0 mm 1 mps 713 mmHg 61%
    18:00 +9°C° 0 mm 0 mps 713 mmHg 67%
    19:00 +9°C° 0 mm 0 mps 714 mmHg 68%
    20:00 +9°C° 0 mm 0 mps 714 mmHg 69%
    21:00 +9°C° 0 mm 1 mps 714 mmHg 70%
    22:00 +8°C° 0 mm 0 mps 714 mmHg 72%
    23:00 +8°C° 0 mm 0 mps 714 mmHg 74%
    Show more